| time (UTC) | temp F | wind direction | speed knots | gust knots | rain 1hr in | rain 24hr in | rain mn in | humidity % | barometer mb |
| 20260504034600 | 47 | 145 | 0.9 | 1.7 | 0.00 | 0.00 | 0.00 | 63 | 1015.9 |
| 20260504034056 | 46 | 71 | 1.7 | 2.6 | 0.00 | 0.00 | 0.00 | 64 | 1016.1 |
| 20260504033555 | 46 | 145 | 0.0 | 0.0 | 0.00 | 0.00 | 0.00 | 66 | 1016.2 |
| 20260504033052 | 46 | 240 | 0.0 | 0.0 | 0.00 | 0.00 | 0.00 | 67 | 1016.3 |
| 20260504032549 | 46 | 91 | 0.0 | 0.0 | 0.00 | 0.00 | 0.00 | 64 | 1016.0 |
| 20260504032045 | 46 | 188 | 0.9 | 1.7 | 0.00 | 0.00 | 0.00 | 63 | 1016.1 |
| 20260504031542 | 46 | 130 | 0.0 | 0.0 | 0.00 | 0.00 | 0.00 | 62 | 1015.9 |
| 20260504031038 | 45 | 162 | 0.0 | 0.0 | 0.00 | 0.00 | 0.00 | 64 | 1016.1 |
| 20260504030536 | 45 | 162 | 0.0 | 0.0 | 0.00 | 0.00 | 0.00 | 63 | 1016.2 |
| 20260504030032 | 45 | 167 | 0.0 | 0.0 | 0.00 | 0.00 | 0.00 | 66 | 1016.1 |
| 20260504025529 | 45 | 170 | 0.0 | 0.0 | 0.00 | 0.00 | 0.00 | 68 | 1016.1 |
| 20260504025026 | 45 | 166 | 0.0 | 0.0 | 0.00 | 0.00 | 0.00 | 62 | 1016.3 |
| 20260504024523 | 45 | 156 | 0.0 | 0.0 | 0.00 | 0.00 | 0.00 | 63 | 1016.1 |
| 20260504024020 | 45 | 154 | 0.0 | 0.0 | 0.00 | 0.00 | 0.00 | 61 | 1015.9 |
| 20260504023516 | 44 | 137 | 0.0 | 0.0 | 0.00 | 0.00 | 0.00 | 63 | 1015.8 |
| 20260504023012 | 44 | 162 | 0.0 | 0.0 | 0.00 | 0.00 | 0.00 | 65 | 1016.1 |
| 20260504022508 | 44 | 167 | 0.0 | 0.0 | 0.00 | 0.00 | 0.00 | 66 | 1016.1 |
| 20260504022005 | 44 | 179 | 0.0 | 0.0 | 0.00 | 0.00 | 0.00 | 66 | 1016.0 |
| 20260504021503 | 44 | 165 | 0.0 | 0.0 | 0.00 | 0.00 | 0.00 | 63 | 1015.9 |
| 20260504020959 | 44 | 165 | 0.0 | 0.0 | 0.00 | 0.00 | 0.00 | 63 | 1015.6 |
| 20260504020456 | 44 | 163 | 0.0 | 0.0 | 0.00 | 0.00 | 0.00 | 62 | 1015.7 |
| 20260504015953 | 44 | 127 | 0.0 | 0.0 | 0.00 | 0.00 | 0.00 | 60 | 1015.7 |
| 20260504015449 | 44 | 129 | 0.0 | 0.0 | 0.00 | 0.00 | 0.00 | 57 | 1015.5 |
| 20260504014945 | 44 | 151 | 0.0 | 0.0 | 0.00 | 0.00 | 0.00 | 59 | 1015.6 |
| 20260504014441 | 45 | 150 | 0.0 | 0.0 | 0.00 | 0.00 | 0.00 | 56 | 1015.5 |
| 20260504013938 | 45 | 150 | 0.0 | 0.0 | 0.00 | 0.00 | 0.00 | 56 | 1015.5 |
| 20260504013437 | 45 | 154 | 0.0 | 0.0 | 0.00 | 0.00 | 0.00 | 57 | 1015.6 |
| 20260504012932 | 45 | 152 | 0.0 | 0.0 | 0.00 | 0.00 | 0.00 | 57 | 1015.5 |
| 20260504012431 | 45 | 145 | 0.0 | 0.0 | 0.00 | 0.00 | 0.00 | 58 | 1015.2 |
| 20260504011928 | 46 | 142 | 0.0 | 0.0 | 0.00 | 0.00 | 0.00 | 57 | 1015.1 |
| 20260504011424 | 46 | 136 | 0.0 | 0.0 | 0.00 | 0.00 | 0.00 | 56 | 1015.3 |
| 20260504010920 | 47 | 147 | 0.0 | 0.0 | 0.00 | 0.00 | 0.00 | 54 | 1015.1 |
| 20260504010416 | 48 | 130 | 0.9 | 1.7 | 0.00 | 0.00 | 0.00 | 50 | 1015.0 |
| 20260504005913 | 48 | 72 | 1.7 | 1.7 | 0.00 | 0.00 | 0.00 | 50 | 1015.1 |
| 20260504005409 | 47 | 116 | 0.0 | 0.0 | 0.00 | 0.00 | 0.00 | 53 | 1015.0 |
| 20260504004907 | 48 | 110 | 0.9 | 1.7 | 0.00 | 0.00 | 0.00 | 53 | 1015.2 |
| 20260504004405 | 48 | 152 | 0.0 | 0.9 | 0.00 | 0.00 | 0.00 | 53 | 1015.0 |
| 20260504003901 | 49 | 116 | 1.7 | 1.7 | 0.00 | 0.00 | 0.00 | 50 | 1015.1 |
| 20260504003358 | 50 | 145 | 0.0 | 0.0 | 0.00 | 0.00 | 0.00 | 51 | 1015.0 |
| 20260504002854 | 50 | 131 | 0.0 | 0.0 | 0.00 | 0.00 | 0.00 | 49 | 1014.9 |
| 20260504002351 | 51 | 68 | 0.0 | 0.9 | 0.00 | 0.00 | 0.00 | 47 | 1015.0 |
| 20260504001849 | 51 | 107 | 0.0 | 0.9 | 0.00 | 0.00 | 0.00 | 45 | 1014.9 |
| 20260504001346 | 51 | 126 | 0.0 | 0.9 | 0.00 | 0.00 | 0.00 | 46 | 1014.8 |
| 20260504000842 | 52 | 133 | 0.0 | 0.0 | 0.00 | 0.00 | 0.00 | 46 | 1014.9 |
| 20260504000340 | 53 | 101 | 0.0 | 0.0 | 0.00 | 0.00 | 0.00 | 43 | 1014.8 |
| 20260503235837 | 54 | 100 | 0.0 | 0.0 | 0.00 | 0.00 | 0.00 | 41 | 1014.8 |
| 20260503235335 | 55 | 73 | 0.0 | 0.9 | 0.00 | 0.00 | 0.00 | 38 | 1014.8 |
| 20260503234832 | 56 | 74 | 0.0 | 0.9 | 0.00 | 0.00 | 0.00 | 38 | 1014.8 |
| 20260503234330 | 57 | 64 | 0.0 | 0.0 | 0.00 | 0.00 | 0.00 | 37 | 1014.8 |
| 20260503233827 | 58 | 139 | 0.0 | 0.0 | 0.00 | 0.00 | 0.00 | 34 | 1014.9 |
| 20260503233323 | 59 | 119 | 0.0 | 0.0 | 0.00 | 0.00 | 0.00 | 35 | 1014.6 |
| 20260503232820 | 60 | 112 | 0.0 | 0.0 | 0.00 | 0.00 | 0.00 | 31 | 1014.9 |
| 20260503232317 | 60 | 100 | 0.0 | 1.7 | 0.00 | 0.00 | 0.00 | 27 | 1014.9 |
| 20260503231815 | 60 | 144 | 0.0 | 0.0 | 0.00 | 0.00 | 0.00 | 31 | 1014.9 |
| 20260503231312 | 61 | 61 | 0.0 | 1.7 | 0.00 | 0.00 | 0.00 | 27 | 1014.6 |
| 20260503230808 | 62 | 96 | 0.0 | 1.7 | 0.00 | 0.00 | 0.00 | 29 | 1014.6 |
| 20260503230305 | 63 | 354 | 1.7 | 2.6 | 0.00 | 0.00 | 0.00 | 25 | 1014.4 |
| 20260503225802 | 62 | 216 | 1.7 | 3.5 | 0.00 | 0.00 | 0.00 | 25 | 1014.9 |
| 20260503225258 | 63 | 243 | 2.6 | 5.2 | 0.00 | 0.00 | 0.00 | 25 | 1014.6 |
| 20260503224755 | 64 | 231 | 3.5 | 5.2 | 0.00 | 0.00 | 0.00 | 25 | 1014.6 |
| 20260503224252 | 63 | 167 | 0.0 | 2.6 | 0.00 | 0.00 | 0.00 | 22 | 1014.3 |
| 20260503223750 | 62 | 227 | 1.7 | 3.5 | 0.00 | 0.00 | 0.00 | 26 | 1014.7 |
| 20260503223247 | 63 | 239 | 3.5 | 5.2 | 0.00 | 0.00 | 0.00 | 24 | 1014.4 |
| 20260503222743 | 63 | 219 | 0.9 | 3.5 | 0.00 | 0.00 | 0.00 | 22 | 1014.3 |
| 20260503222241 | 62 | 96 | 2.6 | 5.2 | 0.00 | 0.00 | 0.00 | 24 | 1014.4 |
| 20260503221739 | 63 | 296 | 5.2 | 7.8 | 0.00 | 0.00 | 0.00 | 23 | 1014.4 |
| 20260503221237 | 63 | 242 | 3.5 | 7.0 | 0.00 | 0.00 | 0.00 | 23 | 1014.4 |
| 20260503220733 | 63 | 270 | 3.5 | 8.7 | 0.00 | 0.00 | 0.00 | 24 | 1014.4 |
| 20260503220230 | 63 | 257 | 7.0 | 7.8 | 0.00 | 0.00 | 0.00 | 23 | 1014.6 |
| 20260503215727 | 63 | 216 | 3.5 | 7.8 | 0.00 | 0.00 | 0.00 | 23 | 1014.4 |
| 20260503215224 | 63 | 166 | 0.0 | 2.6 | 0.00 | 0.00 | 0.00 | 24 | 1014.7 |
| 20260503214722 | 62 | 172 | 0.0 | 6.1 | 0.00 | 0.00 | 0.00 | 26 | 1014.6 |
| 20260503214219 | 62 | 240 | 5.2 | 7.8 | 0.00 | 0.00 | 0.00 | 23 | 1014.7 |
| 20260503213717 | 63 | 263 | 4.3 | 7.0 | 0.00 | 0.00 | 0.00 | 23 | 1014.8 |
| 20260503213214 | 63 | 235 | 3.5 | 7.0 | 0.00 | 0.00 | 0.00 | 24 | 1014.8 |
| 20260503212710 | 63 | 250 | 3.5 | 8.7 | 0.00 | 0.00 | 0.00 | 23 | 1014.9 |
| 20260503212208 | 64 | 255 | 4.3 | 7.8 | 0.00 | 0.00 | 0.00 | 23 | 1014.6 |
| 20260503211706 | 64 | 205 | 1.7 | 6.1 | 0.00 | 0.00 | 0.00 | 22 | 1014.8 |
| 20260503211201 | 63 | 205 | 1.7 | 2.6 | 0.00 | 0.00 | 0.00 | 23 | 1014.9 |
| 20260503210657 | 62 | 259 | 5.2 | 7.8 | 0.00 | 0.00 | 0.00 | 24 | 1014.9 |
| 20260503210154 | 62 | 305 | 5.2 | 7.0 | 0.00 | 0.00 | 0.00 | 23 | 1015.0 |
| 20260503205650 | 62 | 249 | 5.2 | 8.7 | 0.00 | 0.00 | 0.00 | 26 | 1014.9 |
| 20260503205146 | 62 | 243 | 7.0 | 8.7 | 0.00 | 0.00 | 0.00 | 26 | 1015.0 |
| 20260503204643 | 62 | 221 | 4.3 | 6.1 | 0.00 | 0.00 | 0.00 | 23 | 1015.0 |
| 20260503204141 | 62 | 248 | 7.8 | 12.2 | 0.00 | 0.00 | 0.00 | 25 | 1014.9 |
| 20260503203637 | 62 | 234 | 3.5 | 7.0 | 0.00 | 0.00 | 0.00 | 23 | 1015.1 |
| 20260503203135 | 61 | 28 | 3.5 | 3.5 | 0.00 | 0.00 | 0.00 | 22 | 1015.0 |
| 20260503202632 | 61 | 234 | 4.3 | 8.7 | 0.00 | 0.00 | 0.00 | 22 | 1015.2 |
| 20260503202130 | 62 | 59 | 5.2 | 6.1 | 0.00 | 0.00 | 0.00 | 23 | 1015.3 |
| 20260503201628 | 62 | 218 | 5.2 | 5.2 | 0.00 | 0.00 | 0.00 | 25 | 1015.1 |
| 20260503201125 | 62 | 205 | 2.6 | 6.1 | 0.00 | 0.00 | 0.00 | 25 | 1015.3 |
| 20260503200621 | 62 | 16 | 2.6 | 5.2 | 0.00 | 0.00 | 0.00 | 25 | 1015.4 |
| 20260503200118 | 61 | 174 | 3.5 | 6.1 | 0.00 | 0.00 | 0.00 | 25 | 1015.5 |
| 20260503195615 | 61 | 213 | 1.7 | 6.1 | 0.00 | 0.00 | 0.00 | 25 | 1015.5 |
| 20260503195112 | 61 | 30 | 1.7 | 6.1 | 0.00 | 0.00 | 0.00 | 27 | 1015.7 |
| 20260503194610 | 61 | 229 | 2.6 | 5.2 | 0.00 | 0.00 | 0.00 | 28 | 1015.7 |
| 20260503194109 | 61 | 24 | 3.5 | 7.0 | 0.00 | 0.00 | 0.00 | 28 | 1015.6 |
| 20260503193607 | 61 | 278 | 6.1 | 7.0 | 0.00 | 0.00 | 0.00 | 26 | 1015.8 |
| 20260503193102 | 60 | 21 | 1.7 | 1.7 | 0.00 | 0.00 | 0.00 | 37 | 1015.8 |
| 20260503192558 | 60 | 195 | 2.6 | 7.0 | 0.00 | 0.00 | 0.00 | 24 | 1015.8 |
| 20260503192054 | 60 | 234 | 4.3 | 6.1 | 0.00 | 0.00 | 0.00 | 28 | 1015.9 |
| 20260503191551 | 60 | 285 | 7.0 | 9.6 | 0.00 | 0.00 | 0.00 | 27 | 1016.2 |
| 20260503191048 | 60 | 15 | 5.2 | 13.0 | 0.00 | 0.00 | 0.00 | 26 | 1016.1 |
| 20260503190544 | 60 | 270 | 6.1 | 8.7 | 0.00 | 0.00 | 0.00 | 30 | 1016.3 |
| 20260503190042 | 60 | 255 | 4.3 | 7.0 | 0.00 | 0.00 | 0.00 | 28 | 1016.3 |
| 20260503185538 | 60 | 296 | 4.3 | 7.0 | 0.00 | 0.00 | 0.00 | 27 | 1016.4 |
| 20260503185038 | 60 | 263 | 4.3 | 6.1 | 0.00 | 0.00 | 0.00 | 30 | 1016.5 |
| 20260503184534 | 60 | 223 | 6.1 | 7.8 | 0.00 | 0.00 | 0.00 | 30 | 1016.6 |
| 20260503184031 | 59 | 231 | 3.5 | 6.1 | 0.00 | 0.00 | 0.00 | 34 | 1016.6 |
| 20260503183528 | 59 | 8 | 4.3 | 6.1 | 0.00 | 0.00 | 0.00 | 29 | 1016.6 |
| 20260503183025 | 59 | 226 | 4.3 | 7.8 | 0.00 | 0.00 | 0.00 | 30 | 1016.8 |
| 20260503182523 | 58 | 238 | 3.5 | 6.1 | 0.00 | 0.00 | 0.00 | 27 | 1016.7 |
| 20260503182021 | 59 | 31 | 5.2 | 7.0 | 0.00 | 0.00 | 0.00 | 29 | 1016.6 |
| 20260503181518 | 57 | 242 | 4.3 | 7.0 | 0.00 | 0.00 | 0.00 | 29 | 1016.9 |
| 20260503181014 | 58 | 250 | 6.1 | 7.8 | 0.00 | 0.00 | 0.00 | 31 | 1016.8 |
| 20260503180511 | 58 | 266 | 11.3 | 14.8 | 0.00 | 0.00 | 0.00 | 28 | 1016.8 |
| 20260503180008 | 58 | 302 | 6.1 | 7.0 | 0.00 | 0.00 | 0.00 | 32 | 1016.8 |
| 20260503175506 | 58 | 256 | 1.7 | 3.5 | 0.00 | 0.00 | 0.00 | 30 | 1016.8 |
| 20260503175002 | 57 | 190 | 1.7 | 3.5 | 0.00 | 0.00 | 0.00 | 33 | 1016.8 |
| 20260503174500 | 57 | 204 | 3.5 | 9.6 | 0.00 | 0.00 | 0.00 | 32 | 1016.9 |
| 20260503173955 | 57 | 278 | 4.3 | 9.6 | 0.00 | 0.00 | 0.00 | 32 | 1017.0 |
| 20260503173451 | 57 | 238 | 3.5 | 7.8 | 0.00 | 0.00 | 0.00 | 33 | 1017.0 |
| 20260503172948 | 56 | 238 | 3.5 | 7.8 | 0.00 | 0.00 | 0.00 | 33 | 1017.1 |
| 20260503172446 | 56 | 246 | 3.5 | 7.8 | 0.00 | 0.00 | 0.00 | 32 | 1017.1 |
| 20260503171942 | 57 | 280 | 7.0 | 11.3 | 0.00 | 0.00 | 0.00 | 33 | 1017.1 |
| 20260503171438 | 56 | 183 | 0.9 | 2.6 | 0.00 | 0.00 | 0.00 | 33 | 1017.4 |
| 20260503170936 | 55 | 279 | 3.5 | 11.3 | 0.00 | 0.00 | 0.00 | 36 | 1017.4 |
| 20260503170432 | 56 | 285 | 7.0 | 8.7 | 0.00 | 0.00 | 0.00 | 33 | 1017.5 |
| 20260503150825 | 51 | 5 | 6.1 | 7.8 | 0.00 | 0.00 | 0.00 | 38 | 1018.7 |
| 20260503150321 | 50 | 237 | 5.2 | 7.8 | 0.00 | 0.00 | 0.00 | 41 | 1018.9 |
| 20260503140245 | 48 | 218 | 2.6 | 9.6 | 0.00 | 0.00 | 0.00 | 42 | 1018.7 |
| 20260503131215 | 46 | 228 | 3.5 | 6.1 | 0.00 | 0.00 | 0.00 | 47 | 1018.6 |
| 20260503130712 | 46 | 258 | 5.2 | 7.8 | 0.00 | 0.00 | 0.00 | 44 | 1018.4 |
| 20260503130209 | 46 | 179 | 1.7 | 2.6 | 0.00 | 0.00 | 0.00 | 47 | 1018.6 |
| 20260503120135 | 45 | 151 | 0.9 | 0.9 | 0.00 | 0.00 | 0.00 | 58 | 1018.4 |
| 20260503110602 | 36 | 148 | 0.0 | 0.0 | 0.00 | 0.00 | 0.00 | 77 | 1017.6 |
| 20260503090449 | 40 | 137 | 0.0 | 0.0 | 0.00 | 0.00 | 0.00 | 67 | 1016.3 |
| 20260503081416 | 41 | 140 | 0.0 | 0.0 | 0.00 | 0.00 | 0.00 | 65 | 1015.9 |
| 20260503080913 | 41 | 152 | 0.0 | 0.9 | 0.00 | 0.00 | 0.00 | 65 | 1015.9 |
| 20260503080409 | 41 | 115 | 0.9 | 2.6 | 0.00 | 0.00 | 0.00 | 65 | 1015.8 |
| 20260503072846 | 41 | 126 | 0.9 | 1.7 | 0.00 | 0.00 | 0.00 | 65 | 1015.5 |
| 20260503072343 | 41 | 122 | 0.0 | 1.7 | 0.00 | 0.00 | 0.00 | 65 | 1015.6 |
| 20260503071839 | 42 | 56 | 1.7 | 2.6 | 0.00 | 0.00 | 0.00 | 65 | 1015.5 |
| 20260503071337 | 42 | 135 | 0.9 | 1.7 | 0.00 | 0.00 | 0.00 | 65 | 1015.3 |
| 20260503070833 | 42 | 48 | 1.7 | 1.7 | 0.00 | 0.00 | 0.00 | 65 | 1015.3 |
| 20260503070331 | 42 | 154 | 0.0 | 2.6 | 0.00 | 0.00 | 0.00 | 64 | 1015.5 |
| 20260503060256 | 43 | 190 | 0.9 | 0.9 | 0.00 | 0.00 | 0.00 | 67 | 1015.3 |
| 20260503054743 | 42 | 116 | 3.5 | 5.2 | 0.00 | 0.00 | 0.00 | 67 | 1015.2 |
| 20260503054240 | 42 | 134 | 0.9 | 0.9 | 0.00 | 0.00 | 0.00 | 67 | 1015.2 |
| 20260503053738 | 42 | 237 | 1.7 | 2.6 | 0.00 | 0.00 | 0.00 | 69 | 1015.2 |
| 20260503053236 | 41 | 147 | 0.0 | 0.0 | 0.00 | 0.00 | 0.00 | 71 | 1015.1 |
| 20260503052732 | 41 | 160 | 0.9 | 1.7 | 0.00 | 0.00 | 0.00 | 71 | 1015.3 |
| 20260503052229 | 41 | 155 | 0.0 | 0.0 | 0.00 | 0.00 | 0.00 | 71 | 1015.2 |
| 20260503051724 | 41 | 159 | 0.0 | 0.9 | 0.00 | 0.00 | 0.00 | 69 | 1015.1 |
| 20260503051222 | 41 | 146 | 0.0 | 0.0 | 0.00 | 0.00 | 0.00 | 69 | 1015.2 |
| 20260503050718 | 41 | 131 | 0.9 | 0.9 | 0.00 | 0.00 | 0.00 | 69 | 1015.2 |
| 20260503050215 | 41 | 158 | 0.0 | 0.0 | 0.00 | 0.00 | 0.00 | 68 | 1015.2 |
| 20260503045713 | 41 | 144 | 0.9 | 0.9 | 0.00 | 0.00 | 0.00 | 68 | 1015.0 |
| 20260503045210 | 41 | 137 | 0.0 | 0.9 | 0.00 | 0.00 | 0.00 | 67 | 1015.2 |
| 20260503044706 | 42 | 150 | 0.0 | 0.9 | 0.00 | 0.00 | 0.00 | 65 | 1015.2 |
| 20260503044204 | 42 | 149 | 0.0 | 1.7 | 0.00 | 0.00 | 0.00 | 65 | 1015.3 |
| 20260503043700 | 42 | 110 | 0.9 | 0.9 | 0.00 | 0.00 | 0.00 | 64 | 1015.5 |
| 20260503043158 | 43 | 108 | 0.0 | 0.0 | 0.00 | 0.00 | 0.00 | 63 | 1015.5 |
| 20260503042653 | 43 | 109 | 1.7 | 1.7 | 0.00 | 0.00 | 0.00 | 63 | 1015.3 |
| 20260503042150 | 43 | 135 | 0.0 | 1.7 | 0.00 | 0.00 | 0.00 | 62 | 1015.4 |
| 20260503041646 | 43 | 63 | 1.7 | 2.6 | 0.00 | 0.00 | 0.00 | 62 | 1015.6 |
| 20260503041144 | 43 | 51 | 1.7 | 2.6 | 0.00 | 0.00 | 0.00 | 62 | 1015.2 |
| 20260503040642 | 43 | 126 | 0.0 | 0.0 | 0.00 | 0.00 | 0.00 | 61 | 1015.4 |
| 20260503040139 | 44 | 93 | 1.7 | 1.7 | 0.00 | 0.00 | 0.00 | 59 | 1015.3 |
| 20260503035635 | 44 | 93 | 1.7 | 1.7 | 0.00 | 0.00 | 0.00 | 59 | 1015.3 |
| 20260503035133 | 44 | 105 | 0.9 | 0.9 | 0.00 | 0.00 | 0.00 | 59 | 1015.2 |